Location: Chrząstowo
(52.0654°N, 17.1290°E)
Time: 14:29:31
(UTC+01:00)

ISS - Pass Details

Date: 28 January 2019
Orbit: 403 x 411 km, 51.6° (Epoch: 16 February)

Event Time Altitude Azimuth Distance (km) Brightness Sun altitude
Rises 19:08:06 0° 262° (W) 2,336 1.4 -23.9°
Reaches altitude 10° 19:10:11 10° 262° (W) 1,477 0.1 -24.3°
Enters shadow 19:12:13 35° 259° (W) 692 -2.2 -24.6°
